Rbgn^[z[y[W
メイン
   新天体発見情報
     Comet C/2022 A3 (Lemmon-ATLAS)
投稿するにはまず登録を

フラット表示 前のトピック | 次のトピック
投稿者 スレッド
佐藤裕久
投稿日時: 2022-3-19 15:29
モデレータ
登録日: 2005-6-12
居住地: 日本
投稿: 2348
オンライン
Comet C/2022 A3 (Lemmon-ATLAS)

3月1日UT、ハワイ Mauna Loaにある小惑星地球衝突最終警報システム Asteroid Terrestrial-
impact Last Alert System (ATLAS)調査プログラムのコースに0.5-m f/2 Schmidt反射望遠鏡
で得たCCD画像から小惑星状天体を発見した。
それ以前に、1月、Mt Lemmonサーベイの1.5-m 反射望遠鏡による小惑星状のCCD観測があり、
その後、小惑星センターによって確認された。
小惑星センターのPCCP webpageに公表後、E. Bryssinck (Kruibeke, ベルギー, 3月3.8日UT,
120-秒露出40枚のスタック, 0.4-m f/3.8反射望遠鏡: コンパクトで集光した7" ×12"の細長
いコマが見え、p.a. 130°に約6"の短い尾がある。5".5の範囲で測定した光度は19.5等であっ
た)らによって彗星状と観測された。

彗星機能の報告は次のとおり、

OC   Date        Reporter           Coma    Tail    PA          Exposures
246  2022-03-02  M. Tichy           7"
246  2022-03-03  M. Tichy           8"
B96  2022-03-03  E. Bryssinck       7"       7"     130        40x120s
204  2022-03-04  A. Aletti          5"                         45x60s

ATLASの発見位置は次のとおり、

     2022 UT             R.A. (2000) Decl.       Mag.
     Mar.  1.42136   10 19 15.99   +39 37 47.7   19.2
           1.43901   10 19 14.76   +39 37 46.9   19.1
           1.43992   10 19 14.66   +39 37 46.2   18.9
           1.47528   10 19 12.37   +39 37 44.4   19.1

Mt Lemmonの発見位置は次のとおり

     2022 UT             R.A. (2000) Decl.       Mag.
     Jan. 10.42680   11 05 01.05   +38 34 09.8   20.3
          10.43215   11 05 00.82   +38 34 10.6   20.1
          10.43749   11 05 00.69   +38 34 11.2   20.2
          10.44283   11 05 00.47   +38 34 12.3   20.2
          29.41413   10 50 47.73   +39 22 00.3   19.8
          29.42028   10 50 47.40   +39 22 00.8   19.9
          29.42639   10 50 47.09   +39 22 01.6   19.8
          29.43251   10 50 46.77   +39 22 02.6   19.9
          31.37108   10 49 02.41   +39 25 56.0   19.9
          31.37638   10 49 02.13   +39 25 56.9   19.8
          31.38169   10 49 01.82   +39 25 57.4   19.8
          31.38700   10 49 01.54   +39 25 57.8   19.6
     Feb. 22.39853   10 26 48.22   +39 44 26.4   19.9
          22.40372   10 26 47.88   +39 44 26.3   19.5
          22.40891   10 26 47.55   +39 44 26.2   19.6
          22.41412   10 26 47.19   +39 44 25.8   19.6

MPCの楕円軌道要素、位置推算表は次のとおり、

Orbital elements:
    C/2022 A3 (Lemmon-ATLAS)                                                    
Epoch 2023 Sept. 13.0 TT = JDT 2460200.5                                        
T 2023 Sept. 28.86683 TT                                Rudenko                 
q   3.7035557            (2000.0)            P               Q                  
z  +0.0011318      Peri.  234.84715     -0.48777925     +0.66422537             
 +/-0.0000122      Node   325.47985     +0.60658237     -0.20876208             
e   0.9958082      Incl.   88.34333     -0.62779713     -0.71779039             
From 104 observations 2021 Apr. 30-2022 Mar. 6, mean residual 0".4.             
                                                                                
    C/2022 A3 (Lemmon-ATLAS)                                                    
Epoch 2022 Jan. 21.0 TT = JDT 2459600.5                                         
T 2023 Sept. 28.86498 TT                                Rudenko                 
q   3.7025549            (2000.0)            P               Q                  
z  +0.0010148      Peri.  234.86479     -0.48744778     +0.66449122             
 +/-0.0000122      Node   325.48203     +0.60668870     -0.20879359             
e   0.9962428      Incl.   88.36047     -0.62795182     -0.71753512             
From 104 observations 2021 Apr. 30-2022 Mar. 6, mean residual 0".4.             
                                                                                
Ephemeris:
Date    TT    R. A. (2000) Decl.     Delta      r    Elong.  Phase   m1
2022 02 05    10 44 42.4 +39 34 01   5.3975  6.2647   149.2     4.6  19.6
...
2022 02 20    10 29 22.1 +39 45 11   5.2877  6.1718   151.1     4.4  19.5
...
2022 02 28    10 20 47.4 +39 39 41   5.2589  6.1225   148.1     4.9  19.5
...
2022 03 06    10 14 23.5 +39 29 43   5.2507  6.0855   144.5     5.4  19.4
2022 03 07    10 13 20.3 +39 27 34   5.2504  6.0793   143.8     5.5  19.4
2022 03 08    10 12 17.4 +39 25 16   5.2504  6.0732   143.1     5.6  19.4
...
2022 03 14    10 06 08.4 +39 08 31   5.2567  6.0363   138.4     6.3  19.4
...
2022 03 22    09 58 25.9 +38 38 37   5.2806  5.9872   131.5     7.2  19.4
...
2022 04 06    09 46 07.0 +37 21 57   5.3665  5.8956   117.5     8.7  19.4

(MPEC 2022-E107、CBET 5106)

フラット表示 前のトピック | 次のトピック

題名 投稿者 日時
 » Comet C/2022 A3 (Lemmon-ATLAS) 佐藤裕久 2022-3-19 15:29

投稿するにはまず登録を
 
© 1999 Tsutomu Seki.